HVN91 PGUM-VVTS

Flight info

Callsign HVN91
Flight time N/A
Altitude 40000
Route PULEE G467 JOM DCT REKEL M765 PANDI/K0883F400 N500 PTH PTH5D
Aircraft B772/H-SDE2E3FGHIJ5LORVWXY/LB1D1

Departure

Time N/A
Airport Antonio B. Won Pat International Airport (PGUM)

Arrival

Time 2026-05-07 16:10
Airport Tan Son Nhat International Airport (VVTS)
Time Latitude Longitude Altitude Speed Heading
2026-05-07 15:15 11.38219 111.78285 39914 ft 479 kts 264°
2026-05-07 15:15 11.37839 111.74912 39916 ft 478 kts 264°
2026-05-07 15:16 11.37081 111.68179 39915 ft 478 kts 264°
2026-05-07 15:16 11.36320 111.61438 39915 ft 478 kts 264°
2026-05-07 15:17 11.35562 111.54736 39916 ft 478 kts 264°
2026-05-07 15:17 11.34798 111.48003 39917 ft 477 kts 264°
2026-05-07 15:18 11.34044 111.41320 39917 ft 477 kts 264°
2026-05-07 15:18 11.33283 111.34590 39917 ft 477 kts 264°
2026-05-07 15:19 11.32515 111.27879 39918 ft 477 kts 264°
2026-05-07 15:19 11.31745 111.21169 39919 ft 477 kts 264°
2026-05-07 15:20 11.30972 111.14448 39919 ft 477 kts 264°
2026-05-07 15:20 11.30197 111.07771 39920 ft 477 kts 264°
2026-05-07 15:21 11.29356 111.01068 39920 ft 476 kts 264°
2026-05-07 15:21 11.28518 110.94377 39921 ft 476 kts 264°
2026-05-07 15:22 11.27682 110.87695 39921 ft 476 kts 264°
2026-05-07 15:22 11.26842 110.80987 39922 ft 476 kts 264°
2026-05-07 15:23 11.26007 110.74300 39923 ft 476 kts 264°
2026-05-07 15:23 11.25234 110.68020 39923 ft 476 kts 264°
2026-05-07 15:24 11.24402 110.61339 39923 ft 476 kts 264°
2026-05-07 15:24 11.23570 110.54688 39924 ft 476 kts 264°
2026-05-07 15:25 11.22731 110.48002 39924 ft 476 kts 264°
2026-05-07 15:25 11.21890 110.41313 39925 ft 475 kts 264°
2026-05-07 15:26 11.21054 110.34678 39926 ft 475 kts 264°
2026-05-07 15:26 11.20208 110.27979 39926 ft 475 kts 264°
2026-05-07 15:27 11.19363 110.21293 39926 ft 475 kts 264°
2026-05-07 15:27 11.18517 110.14614 39926 ft 475 kts 264°
2026-05-07 15:28 11.17668 110.07930 39927 ft 475 kts 264°
2026-05-07 15:28 11.16824 110.01291 39927 ft 475 kts 264°
2026-05-07 15:29 11.15972 109.94602 39927 ft 475 kts 264°
2026-05-07 15:29 11.15120 109.87925 39927 ft 475 kts 264°
2026-05-07 15:30 11.14282 109.81297 39928 ft 475 kts 264°
2026-05-07 15:30 11.13426 109.74616 39928 ft 475 kts 264°
2026-05-07 15:31 11.12565 109.67935 39928 ft 475 kts 264°
2026-05-07 15:31 11.11706 109.61269 39928 ft 475 kts 264°
2026-05-07 15:32 11.10852 109.54645 39928 ft 475 kts 264°
2026-05-07 15:32 11.10041 109.47972 39928 ft 474 kts 264°
2026-05-07 15:33 11.09241 109.41300 39928 ft 474 kts 264°
2026-05-07 15:33 11.08435 109.34620 39928 ft 475 kts 264°
2026-05-07 15:34 11.07628 109.27950 39927 ft 474 kts 264°
2026-05-07 15:34 11.06831 109.21370 39927 ft 474 kts 264°
2026-05-07 15:35 11.06036 109.14711 39924 ft 474 kts 264°
2026-05-07 15:35 11.05236 109.08017 39924 ft 474 kts 264°
2026-05-07 15:36 11.04425 109.01356 39655 ft 472 kts 264°
2026-05-07 15:36 11.04020 108.98044 39008 ft 472 kts 264°
2026-05-07 15:36 11.03615 108.94730 38334 ft 472 kts 264°
2026-05-07 15:37 11.03209 108.91412 37639 ft 472 kts 264°
2026-05-07 15:37 11.02802 108.88086 36929 ft 473 kts 264°
2026-05-07 15:37 11.02401 108.84802 36229 ft 473 kts 264°
2026-05-07 15:37 11.01994 108.81473 35693 ft 470 kts 264°
2026-05-07 15:38 11.01604 108.78305 35170 ft 466 kts 264°
2026-05-07 15:38 11.01204 108.75058 34637 ft 463 kts 264°
2026-05-07 15:38 11.00801 108.71785 34110 ft 460 kts 264°
2026-05-07 15:38 11.00407 108.68593 33595 ft 457 kts 264°
2026-05-07 15:39 11.00012 108.65392 33072 ft 453 kts 264°
2026-05-07 15:39 10.99617 108.62194 32546 ft 451 kts 263°
2026-05-07 15:39 10.99232 108.59081 32029 ft 448 kts 263°
2026-05-07 15:39 10.98846 108.55958 31509 ft 445 kts 263°
2026-05-07 15:40 10.98456 108.52816 30981 ft 443 kts 263°
2026-05-07 15:40 10.98069 108.49685 30458 ft 440 kts 263°
2026-05-07 15:40 10.97695 108.46628 29945 ft 438 kts 263°
2026-05-07 15:40 10.97320 108.43557 29421 ft 436 kts 263°
2026-05-07 15:41 10.96943 108.40490 28869 ft 434 kts 263°
2026-05-07 15:41 10.96573 108.37442 28321 ft 432 kts 263°
2026-05-07 15:41 10.96253 108.34835 27852 ft 430 kts 263°
2026-05-07 15:41 10.95887 108.31875 27264 ft 429 kts 263°
2026-05-07 15:42 10.95515 108.28879 26372 ft 436 kts 263°
2026-05-07 15:42 10.95132 108.25809 25725 ft 435 kts 263°
2026-05-07 15:42 10.94754 108.22782 25319 ft 429 kts 263°
2026-05-07 15:42 10.94379 108.19784 24802 ft 425 kts 263°
2026-05-07 15:43 10.94008 108.16810 24285 ft 422 kts 263°
2026-05-07 15:43 10.93640 108.13869 23770 ft 419 kts 263°
2026-05-07 15:43 10.93271 108.10924 23257 ft 416 kts 263°
2026-05-07 15:43 10.93033 108.08007 22744 ft 412 kts 269°
2026-05-07 15:44 10.93123 108.05130 22242 ft 409 kts 274°
2026-05-07 15:44 10.93389 108.02215 21723 ft 406 kts 276°
2026-05-07 15:44 10.93735 107.99386 21227 ft 404 kts 278°
2026-05-07 15:44 10.94115 107.96565 20731 ft 401 kts 278°
2026-05-07 15:45 10.94487 107.93756 20239 ft 399 kts 277°
2026-05-07 15:45 10.94844 107.91009 19852 ft 395 kts 277°
2026-05-07 15:45 10.95199 107.88238 19270 ft 396 kts 277°
2026-05-07 15:45 10.95551 107.85458 18779 ft 394 kts 277°
2026-05-07 15:46 10.96250 107.79947 17800 ft 389 kts 277°
2026-05-07 15:46 10.96594 107.77224 17313 ft 387 kts 277°
2026-05-07 15:46 10.96934 107.74521 16828 ft 385 kts 277°
2026-05-07 15:47 10.97275 107.71815 16338 ft 382 kts 277°
2026-05-07 15:47 10.97620 107.69172 15858 ft 380 kts 278°
2026-05-07 15:47 10.97962 107.66514 15370 ft 378 kts 278°
2026-05-07 15:47 10.98297 107.63870 14879 ft 375 kts 278°
2026-05-07 15:48 10.98628 107.61238 14389 ft 373 kts 278°
2026-05-07 15:48 10.98958 107.58633 13897 ft 371 kts 278°
2026-05-07 15:48 10.99281 107.56036 13420 ft 368 kts 278°
2026-05-07 15:48 10.99603 107.53463 12948 ft 365 kts 278°
2026-05-07 15:49 10.99921 107.50908 12469 ft 362 kts 278°
2026-05-07 15:49 11.00238 107.48366 11986 ft 360 kts 278°
2026-05-07 15:49 11.00549 107.45875 11481 ft 358 kts 278°
2026-05-07 15:49 11.00860 107.43380 11157 ft 353 kts 278°
2026-05-07 15:50 11.01020 107.40903 11053 ft 342 kts 270°
2026-05-07 15:50 11.00843 107.38556 11009 ft 326 kts 265°
2026-05-07 15:50 11.00536 107.36294 10797 ft 317 kts 260°
2026-05-07 15:50 11.00049 107.34135 10336 ft 318 kts 256°
2026-05-07 15:51 10.99424 107.31982 10001 ft 314 kts 253°
2026-05-07 15:51 10.98757 107.29883 9813 ft 305 kts 253°
2026-05-07 15:51 10.98134 107.27850 9627 ft 297 kts 253°
2026-05-07 15:51 10.97302 107.25962 9356 ft 289 kts 237°
2026-05-07 15:52 10.95849 107.24601 9133 ft 281 kts 211°
2026-05-07 15:52 10.94040 107.23999 9080 ft 266 kts 190°
2026-05-07 15:52 10.92266 107.23830 9024 ft 254 kts 179°
2026-05-07 15:52 10.90549 107.23916 9004 ft 241 kts 174°
2026-05-07 15:53 10.88918 107.24054 8997 ft 227 kts 173°
2026-05-07 15:53 10.87390 107.24227 9042 ft 218 kts 171°
2026-05-07 15:53 10.85867 107.24262 9007 ft 218 kts 181°
2026-05-07 15:53 10.84363 107.24057 9008 ft 219 kts 188°
2026-05-07 15:54 10.82866 107.23756 9005 ft 220 kts 190°
2026-05-07 15:54 10.81355 107.23454 9003 ft 221 kts 189°
2026-05-07 15:54 10.79858 107.23178 9001 ft 221 kts 188°
2026-05-07 15:54 10.78343 107.22909 8999 ft 221 kts 188°
2026-05-07 15:55 10.76828 107.22637 8998 ft 221 kts 189°
2026-05-07 15:55 10.75358 107.22174 8996 ft 222 kts 200°
2026-05-07 15:55 10.73977 107.21473 9003 ft 222 kts 207°
2026-05-07 15:55 10.72628 107.20701 9002 ft 223 kts 208°
2026-05-07 15:56 10.71278 107.19923 9000 ft 223 kts 208°
2026-05-07 15:56 10.69917 107.19170 9000 ft 223 kts 207°
2026-05-07 15:56 10.68547 107.18428 9000 ft 223 kts 207°
2026-05-07 15:56 10.67186 107.17671 8996 ft 223 kts 210°
2026-05-07 15:57 10.65966 107.16702 8999 ft 223 kts 221°
2026-05-07 15:57 10.64900 107.15547 9003 ft 223 kts 228°
2026-05-07 15:57 10.63887 107.14350 9001 ft 224 kts 230°
2026-05-07 15:57 10.62884 107.13163 8999 ft 224 kts 229°
2026-05-07 15:58 10.61843 107.11982 8999 ft 224 kts 227°
2026-05-07 15:58 10.60791 107.10815 8999 ft 223 kts 227°
2026-05-07 15:58 10.60096 107.10046 8999 ft 223 kts 227°
2026-05-07 15:58 10.58724 107.08460 8994 ft 223 kts 232°
2026-05-07 15:59 10.58182 107.07568 8993 ft 223 kts 242°
2026-05-07 15:59 10.57961 107.05538 8839 ft 217 kts 283°
2026-05-07 15:59 10.58386 107.04641 8658 ft 211 kts 304°
2026-05-07 15:59 10.59482 107.03679 8305 ft 207 kts 329°
2026-05-07 16:00 10.60777 107.03030 7942 ft 208 kts 337°
2026-05-07 16:00 10.62088 107.02400 7628 ft 208 kts 337°
2026-05-07 16:00 10.63818 107.01578 7241 ft 207 kts 337°
2026-05-07 16:00 10.65120 107.00958 6950 ft 206 kts 337°
2026-05-07 16:01 10.65991 107.00543 6746 ft 205 kts 337°
2026-05-07 16:01 10.67255 106.99940 6466 ft 205 kts 337°
2026-05-07 16:01 10.68576 106.99309 6168 ft 204 kts 336°
2026-05-07 16:01 10.69843 106.98704 5889 ft 203 kts 336°
2026-05-07 16:02 10.71128 106.98089 5597 ft 203 kts 336°
2026-05-07 16:02 10.72409 106.97476 5301 ft 203 kts 336°
2026-05-07 16:02 10.73689 106.96864 5031 ft 202 kts 337°
2026-05-07 16:02 10.74955 106.96258 4815 ft 199 kts 336°
2026-05-07 16:03 10.76215 106.95655 4734 ft 202 kts 336°
2026-05-07 16:03 10.77495 106.95043 4650 ft 203 kts 336°
2026-05-07 16:03 10.78768 106.94433 4567 ft 202 kts 336°
2026-05-07 16:03 10.80040 106.93824 4479 ft 202 kts 336°
2026-05-07 16:04 10.81291 106.93224 4388 ft 202 kts 336°
2026-05-07 16:04 10.82572 106.92612 4309 ft 203 kts 336°
2026-05-07 16:04 10.83863 106.91994 4221 ft 202 kts 336°
2026-05-07 16:04 10.85116 106.91395 4131 ft 201 kts 336°
2026-05-07 16:05 10.86383 106.90779 4040 ft 202 kts 335°
2026-05-07 16:05 10.87474 106.89873 3854 ft 206 kts 310°
2026-05-07 16:05 10.87913 106.88510 3742 ft 204 kts 277°
2026-05-07 16:05 10.87858 106.87080 3695 ft 203 kts 265°
2026-05-07 16:06 10.87884 106.85625 3428 ft 209 kts 272°
2026-05-07 16:06 10.88036 106.84139 3110 ft 211 kts 275°
2026-05-07 16:06 10.88249 106.82684 2940 ft 204 kts 276°
2026-05-07 16:06 10.88191 106.81294 2752 ft 196 kts 258°
2026-05-07 16:07 10.87736 106.79977 2585 ft 199 kts 245°
2026-05-07 16:07 10.87190 106.78679 2402 ft 196 kts 244°
2026-05-07 16:07 10.86686 106.77415 2222 ft 193 kts 245°
2026-05-07 16:07 10.86191 106.76125 2031 ft 198 kts 246°
2026-05-07 16:08 10.85703 106.74839 1797 ft 189 kts 246°
2026-05-07 16:08 10.85245 106.73624 1557 ft 177 kts 246°
2026-05-07 16:08 10.84820 106.72501 1323 ft 164 kts 247°
2026-05-07 16:08 10.84430 106.71466 1115 ft 147 kts 246°
2026-05-07 16:09 10.84071 106.70515 923 ft 144 kts 246°
2026-05-07 16:09 10.83715 106.69571 730 ft 143 kts 246°
2026-05-07 16:09 10.83358 106.68627 544 ft 143 kts 246°
2026-05-07 16:09 10.83001 106.67679 355 ft 143 kts 246°
2026-05-07 16:10 10.82643 106.66734 160 ft 143 kts 246°
2026-05-07 16:10 10.82294 106.65805 52 ft 133 kts 246°
2026-05-07 16:10 10.82002 106.65042 47 ft 95 kts 248°
2026-05-07 16:10 10.81830 106.64586 47 ft 49 kts 249°
2026-05-07 16:11 10.81705 106.64383 47 ft 24 kts 223°
2026-05-07 16:11 10.81609 106.64308 47 ft 16 kts 206°
2026-05-07 16:11 10.81523 106.64299 47 ft 10 kts 161°
2026-05-07 16:11 10.81456 106.64326 47 ft 11 kts 158°
2026-05-07 16:12 10.81377 106.64357 47 ft 15 kts 159°
2026-05-07 16:12 10.81273 106.64399 47 ft 8 kts 155°
2026-05-07 16:12 10.81244 106.64438 47 ft 7 kts 89°
2026-05-07 16:12 10.81260 106.64486 47 ft 8 kts 70°
2026-05-07 16:13 10.81291 106.64572 47 ft 18 kts 70°
2026-05-07 16:13 10.81336 106.64696 47 ft 18 kts 70°
2026-05-07 16:13 10.81380 106.64814 47 ft 17 kts 69°
2026-05-07 16:13 10.81421 106.64927 47 ft 16 kts 70°
2026-05-07 16:14 10.81447 106.64997 47 ft 16 kts 69°
2026-05-07 16:14 10.81486 106.65100 47 ft 15 kts 68°
2026-05-07 16:14 10.81524 106.65198 47 ft 18 kts 69°
2026-05-07 16:14 10.81584 106.65355 47 ft 27 kts 68°
2026-05-07 16:15 10.81648 106.65518 47 ft 19 kts 65°
2026-05-07 16:15 10.81693 106.65628 47 ft 16 kts 68°
2026-05-07 16:15 10.81725 106.65725 47 ft 11 kts 90°
2026-05-07 16:15 10.81702 106.65799 47 ft 11 kts 112°
2026-05-07 16:16 10.81682 106.65874 47 ft 13 kts 91°
2026-05-07 16:16 10.81711 106.65972 47 ft 13 kts 69°
2026-05-07 16:16 10.81743 106.66058 47 ft 13 kts 69°
2026-05-07 16:16 10.81773 106.66140 47 ft 12 kts 69°
2026-05-07 16:17 10.81790 106.66188 47 ft 4 kts 75°
2026-05-07 16:17 10.81783 106.66211 47 ft 3 kts 130°
2026-05-07 16:17 10.81765 106.66225 47 ft 3 kts 156°
2026-05-07 16:17 10.81746 106.66233 47 ft 3 kts 158°
2026-05-07 16:18 10.81729 106.66239 47 ft 2 kts 160°
2026-05-07 16:18 10.81715 106.66245 47 ft 2 kts 159°
2026-05-07 16:18 10.81708 106.66247 47 ft 0 kts 159°